Regional Weather Roundup
Issued by NWS New Orleans/Baton Rouge, LA

Home | Current Version | Previous Version | Text Only | Print | Product List | Glossary Off
Versions: 1 2 3 4 5 6 7 8 9 10 11 12 13 14 15 16 17 18 19 20 21 22 23 24 25 26 27 28 29 30 31 32 33 34 35 36 37 38 39 40 41 42 43 44 45 46 47 48 49 50

730
ASUS44 KLIX 041701
RWRLIX
NEW ORLEANS REGIONAL WEATHER ROUNDUP
NATIONAL WEATHER SERVICE NEW ORLEANS LA
1100 AM CST WED MAR 04 2015

NOTE: "FAIR" INDICATES FEW OR NO CLOUDS BELOW 12,000 FEET WITH NO
      SIGNIFICANT WEATHER AND/OR OBSTRUCTIONS TO VISIBILITY.
      SKY/WX - SKY CONDITION AND SIGNIFICANT WEATHER.
      TMP - AIR TEMPERATURE.     DP    - DEWPOINT TEMPERATURE.
      RH  - RELATIVE HUMIDITY.   PRES  - PRESSURE.
      HI  - HEAT INDEX.          WCI   - WIND CHILL INDEX.

*  THESE STATIONS ARE NOT NWS OR FAA STATIONS AND ARE NOT UNDER
   NWS QUALITY CONTROL.

LAZ038-040-048-061>063-065>067-069-041800-
SOUTHEAST LOUISIANA

CITY           SKY/WX    TMP DP  RH WIND       PRES   REMARKS
N.O. AUDUBON   NOT AVBL
N.O. INTL ARPT MOSUNNY   79  68  69 S13       29.99F
N.O. LAKEFRONT MOSUNNY   80  67  64 S14       30.00F
SLIDELL        MOSUNNY   76  68  76 S13       30.00F
BATON ROUGE    CLOUDY    77  69  76 S14G28    29.98
BOOTHVILLE     MOSUNNY   76  70  82 S14       30.02F
BELLE CHASSE   PTSUNNY   80  68  66 S12       29.99F
BOGALUSA*        N/A     78  68  71 SW9       30.01F
GALLIANO*      MOSUNNY   82  70  66 SE12G17   30.00F
NEW ROADS*     NOT AVBL
GONZALES*      NOT AVBL
HAMMOND*       NOT AVBL
HOUMA*         MOSUNNY   81  70  69 S13       29.99F
PORT FOURCHON* MOSUNNY   77  70  78 S8        30.04F

$$

MSZ070-080>082-041800-
SOUTHERN MISSISSIPPI

CITY           SKY/WX    TMP DP  RH WIND       PRES   REMARKS
MCCOMB         CLOUDY    73  67  81 S8        29.99F
GULFPORT       PTSUNNY   73  67  81 S16       30.01F
BILOXI         NOT AVBL
PASCAGOULA     MOSUNNY   78  69  73 S17G23    30.02F
STENNIS ARPT*  PTSUNNY   72  64  78 S9        30.02

$$

COASTAL OBSERVATIONS
LAKE AND NEARSHORE STATIONS

STATION/POSITION TIME  TEMP    WIND        PRES    WAVE
                       AIR SEA DIR/SP/G            HT/PER
                 (UTC) (F)     (DEG/KT/KT) (MB)    (FT/S)
PASCAGOULA       1618   72     140/  5/ 12 1016.8
WAVELAND YACHT   1618   64 60  160/  6/  8 1016.5
GRAND ISLE       1618   72 64  160/  4/  7 1017.0
SOUTHWEST PASS   1618   65 45  150/  7/ 10 1017.1
NEW CANAL        1618   76     190/  7/ 11 1016.5
SHELL BEACH      1618   72 60  190/  4/  7 1016.6

OFFSHORE STATIONS

STATION/POSITION TIME  TEMP    WIND        PRES    WAVE
                       AIR SEA DIR/SP/G            HT/PER
                 (UTC) (F)     (DEG/KT/KT) (MB)    (FT/S)
64 S DAUPHIN ISL 1636   72 72  150/ 14/ 16 1017.5    4/ 6

$$




USA.gov is the U.S. government's official web portal to all federal, state and local government web resources and services.